Regional Weather Roundup
Issued by NWS

Home | Current Version | Previous Version | Text Only | Print | Product List | Glossary Off
Versions: 1 2 3 4 5 6 7 8 9 10 11 12 13 14 15 16 17 18 19 20 21 22 23 24 25 26 27 28 29 30 31 32 33 34 35 36 37 38 39 40 41 42 43 44 45 46 47 48 49 50

000
ASUS43 KMPX 060910
RWRMN
WEATHER ROUNDUP FOR MINNESOTA
NATIONAL WEATHER SERVICE TWIN CITIES/CHANHASSEN MN
300 AM CST TUE DEC 06 2016


NOTE: "FAIR" INDICATES FEW OR NO CLOUDS BELOW 12,000 FEET WITH NO
SIGNIFICANT WEATHER AND/OR OBSTRUCTIONS TO VISIBILITY. N/A MEANS
CURRENT SKY AND/OR WEATHER CONDITIONS ARE NOT AVAILABLE.

MNZ060>063-068>070-061000-
   Twin Cities Metro

CITY           SKY/WX    TMP DP  RH WIND       PRES   REMARKS
TWIN CITIES    CLOUDY    33  24  69 SW12      29.72R WCI  24
ST PAUL        CLOUDY    33  26  75 W15G23    29.74R WCI  23
CRYSTAL        CLOUDY    32  22  66 SW13      29.70S WCI  22
BLAINE         CLOUDY    34  27  75 SW9       29.70S WCI  26
LAKEVILLE      CLOUDY    30  27  86 W7        29.73F WCI  23
EDEN PRAIRIE   CLOUDY    31  23  72 SW13      29.71S WCI  21
SOUTH ST PAUL  CLOUDY    33  26  74 SW9       29.72S WCI  25
LAKE ELMO      CLOUDY    32  28  86 SW12G20   29.73R WCI  23
$$
MNZ001>005-007-008-013>017-022>024-027-028-061000-
   Northwest Minnesota

CITY           SKY/WX    TMP DP  RH WIND       PRES   REMARKS
BEMIDJI        CLOUDY    28  24  86 S18G26    29.42R WCI  15
HALLOCK        LGT SNOW  30  28  93 N20       29.34F WCI  18
ROSEAU         LGT SNOW  32  28  86 E15       29.32F VSB 3/4 WCI  22
WARROAD        LGT SNOW  32  28  86 E16       29.34F WCI  21
THIEF RVR FALL LGT SNOW  30  29  96 S25G32    29.30F FOG     WCI  16
CROOKSTON      FLURRIES  30  28  93 SW9       29.32R WCI  22
FOSSTON        CLOUDY    21  21 100 S28G36    29.39R WCI   3
DETROIT LAKES  CLOUDY    21  19  93 SW18G33   29.50R WCI   6
MOORHEAD       CLOUDY    21  18  86 SW18G26   29.48R WCI   6
PARK RAPIDS    CLOUDY    23  17  78 SW20      29.50R WCI   8
$$
MNZ006-009>011-018-025>026-061000-
   North Central Minnesota

CITY           SKY/WX    TMP DP  RH WIND       PRES   REMARKS
BAUDETTE       MIX PCPN  33  32  96 SE15      29.35F FOG     WCI  23
FLAG ISLAND    LGT SNOW  30  28  93 E14G24    29.38F WCI  20
INTL FALLS     CLOUDY    34  32  92 SE15G23   29.44S FOG     WCI  24
WASKISH        CLOUDY    34  32  93 S9G17     29.40R WCI  26
BIG FORK       CLOUDY    34  30  86 S18G30    29.45R WCI  23
LONGVILLE      CLOUDY    28  23  80 S13G23    29.50S WCI  18
GRAND RAPIDS   CLOUDY    32  26  78 SW15G23   29.52R WCI  22
CRANE LAKE     MIX PCPN  32  30  93 SE3       29.52F
ORR            CLOUDY    34  30  86 SE15G21   29.46F WCI  24
COOK           CLOUDY    34  32  93 S8G17     29.50F WCI  27
$$
MNZ012-019>021-037-061000-
   Northeast Minnesota

CITY           SKY/WX    TMP DP  RH WIND       PRES   REMARKS
DULUTH         CLOUDY    36  33  89 S17       29.56S
ELY            CLOUDY    34  34 100 SE14      29.53F FOG     WCI  24
HIBBING        CLOUDY    32  30  92 S7G18     29.52R WCI  26
EVELETH        CLOUDY    35  33  94 S14G23    29.52F WCI  26
DULUTH HARBOR  CLOUDY    39  36  87 S15       29.60S
TWO HARBORS    CLOUDY    39  34  81 S15       29.58S
SILVER BAY     CLOUDY    36  36 100 S15       29.58F FOG
GRAND MARAIS     N/A     41  36  82 S18       29.66F
G MARAIS ARPRT MIX PCPN  32  28  86 S13G18    29.62F WCI  22
$$
MNZ029>031-032-039>041-046>048-054>057-064-061000-
   West Central Minnesota

CITY           SKY/WX    TMP DP  RH WIND       PRES   REMARKS
FERGUS FALLS   CLOUDY    19  14  79 SW25G31   29.61F WCI   2
WHEATON        CLOUDY    19  14  79 SW24G30   29.65F WCI   2
MORRIS         MOCLDY    19  14  79 SW18G28   29.66R WCI   4
ALEXANDRIA     CLOUDY    19  13  77 SW22G33   29.61S WCI   2
ELBOW LAKE     FAIR      17  13  82 SW26G32   29.62F WCI  -1
WADENA         CLOUDY    19  16  86 SW18G28   29.55R WCI   4
GLENWOOD       CLOUDY    19  14  79 SW29G36   29.63S WCI   1
APPLETON       CLOUDY    21  12  68 W24       29.70S WCI   4
BENSON         CLOUDY    19  12  73 W20G30    29.69R WCI   4
ORTONVILLE     CLOUDY    19  10  68 W18       29.68S WCI   4
MADISON        CLOUDY    21  14  73 W24       29.73S WCI   4
WILLMAR        CLOUDY    25  19  80 W25G31    29.71S WCI   9
$$
MNZ033>034-036-042>043-049>051-058-059-061000-
   Central Minnesota

CITY           SKY/WX    TMP DP  RH WIND       PRES   REMARKS
ST CLOUD       CLOUDY    27  20  75 SW22G28   29.67R WCI  13
PAYNESVILLE    CLOUDY    23  20  87 W18       29.69R WCI   9
AITKIN         CLOUDY    32  23  69 S15       29.54S WCI  22
PINE RIVER     CLOUDY    25  21  86 SW20      29.58R WCI  11
BRAINERD       CLOUDY    27  22  81 SW17G24   29.57R WCI  14
STAPLES        CLOUDY    21  18  86 SW20G25   29.58R WCI   6
LONG PRAIRIE   CLOUDY    21  16  79 S20G28    29.62R WCI   6
LITTLE FALLS   CLOUDY    27  19  74 SW12G21   29.64R WCI  16
LITCHFIELD     CLOUDY    25  19  80 W12G22    29.71R WCI  14
BUFFALO        CLOUDY    28  21  74 SW13G21   29.72R WCI  18
MAPLE LAKE     CLOUDY    29  24  80 SW12G21   29.70S WCI  20
$$
MNZ037-044-045-052-053-061000-
   East Central Minnesota

CITY           SKY/WX    TMP DP  RH WIND       PRES   REMARKS
PRINCETON      CLOUDY    30  25  80 SW10G18   29.67S WCI  21
MORA           CLOUDY    32  27  80 SW10G16   29.65S WCI  24
CAMBRIDGE      CLOUDY    34  25  69 S9        29.65F WCI  26
RUSH CITY      CLOUDY    32  27  80 SW9G18    29.66S WCI  24
MOOSE LAKE     CLOUDY    34  28  80 SW15G25   29.58S WCI  24
HINCKLEY       CLOUDY    34  30  86 S13       29.63R WCI  25
CLOQUET        CLOUDY    34  28  80 S10       29.57R WCI  26
MCGREGOR       CLOUDY    32  27  80 SW14G26   29.57R WCI  22
$$
MNZ071>073-080-081-089-090-097-098-061000-
   Southwest Minnesota

CITY           SKY/WX    TMP DP  RH WIND       PRES   REMARKS
MONTEVIDEO     CLOUDY    21  14  73 W10G22    29.75R WCI  10
GRANITE FALLS  CLOUDY    23  16  76 W25       29.77R WCI   6
CANBY          MOCLDY    20  13  75 SW18G28   29.75S WCI   4
MARSHALL       FLURRIES  19  13  77 W25       29.76R WCI   1
REDWOOD FALLS  CLOUDY    23  14  68 W20G28    29.76R WCI   8
OLIVIA         CLOUDY    23  18  80 W23G29    29.73R WCI   7
PIPESTONE      PTCLDY    18  10  73 W22G32    29.77F WCI   0
WINDOM         CLOUDY    21  16  79 W20G25    29.78R WCI   6
WORTHINGTON    CLOUDY    19  14  81 W30G36    29.77S WCI   0
JACKSON        CLOUDY    23  18  80 W16       29.79R WCI  10
TRACY          CLOUDY    21  16  79 W16G25    29.77R WCI   7
SLAYTON        MOCLDY    17  13  83 W21G35    29.76R WCI   0
$$
MNZ065>067-074>077-082>085-091>093-061000-
   South Central Minnesota

CITY           SKY/WX    TMP DP  RH WIND       PRES   REMARKS
MANKATO        MOCLDY    29  24  82 W20       29.76F WCI  16
NEW ULM        CLOUDY    27  19  74 W22       29.75F WCI  12
ST JAMES       CLOUDY    27  19  74 W17G26    29.79S WCI  14
FAIRMONT       CLOUDY    27  20  75 W22G28    29.80R WCI  13
GLENCOE        CLOUDY    29  25  84 W14G21    29.73R WCI  19
FARIBAULT      CLOUDY    32  27  80 SW12      29.74F WCI  23
OWATONNA       MOCLDY    32  27  80 W10       29.75F WCI  24
WASECA         CLOUDY    32  28  86 SW15      29.77S WCI  22
ALBERT LEA     CLOUDY    36  30  80 W8        29.76F
$$
MNZ078>079-086>088-094>096-061000-
   Southeast Minnesota

CITY           SKY/WX    TMP DP  RH WIND       PRES   REMARKS
ROCHESTER      LGT SNOW  33  32  96 SW13      29.75S FOG     WCI  24
RED WING       MIX PCPN  36  34  93 W8        29.73S
STANTON        CLOUDY    33  26  76 W12G20    29.73F WCI  24
DODGE CENTER   LGT SNOW  30  30 100 W13       29.74F WCI  20
WINONA         LGT SNOW  34  32  93 CALM      29.78S
AUSTIN         LGT SNOW  32  30  93 W7        29.76S WCI  26
PRESTON        LGT SNOW  32  30  94 S12       29.77S WCI  23
$$
ABBREVIATIONS USED IN REMARKS
   TC - TEMPERATURES IN CELSIUS
  WCI - WIND CHILL INDEX
   HX - HEAT INDEX
  VSB - VISIBILITY
$$



USA.gov is the U.S. government's official web portal to all federal, state and local government web resources and services.